Time,TemperatureF,DewpointF,PressureIn,WindDirection,WindDirectionDegrees,WindSpeedMPH,WindSpeedGustMPH,Humidity,HourlyPrecipIn,Conditions,Clouds,dailyrainin,SoftwareType,DateUTC
2013-01-19 00:00:00,36.1,26.6,29.97,NNE,24,0.0,0.0,68,0.00,,,0.00,WUHU216DAVISVP2,2013-01-19 05:00:00,
2013-01-19 00:01:00,36.1,26.6,29.97,NNE,24,0.0,0.0,68,0.00,,,0.00,WUHU216DAVISVP2,2013-01-19 05:01:00,
2013-01-19 00:06:00,36.0,26.9,29.97,NE,41,0.0,0.0,69,0.00,,,0.00,WUHU216DAVISVP2,2013-01-19 05:06:00,
2013-01-19 00:11:00,36.1,27.0,29.97,NE,41,0.0,0.0,69,0.00,,,0.00,WUHU216DAVISVP2,2013-01-19 05:11:00,
2013-01-19 00:16:00,36.1,26.6,29.97,NNW,345,0.0,0.0,68,0.00,,,0.00,WUHU216DAVISVP2,2013-01-19 05:16:00,
2013-01-19 00:21:00,36.1,26.6,29.96,NNE,22,0.0,0.0,68,0.00,,,0.00,WUHU216DAVISVP2,2013-01-19 05:21:00,
2013-01-19 00:26:00,36.0,26.5,29.96,NNE,28,0.0,0.0,68,0.00,,,0.00,WUHU216DAVISVP2,2013-01-19 05:26:00,
2013-01-19 00:32:00,36.1,27.0,29.96,NNE,24,0.0,0.0,69,0.00,,,0.00,WUHU216DAVISVP2,2013-01-19 05:32:00,
2013-01-19 00:37:00,36.1,26.6,29.96,NE,36,0.0,0.0,68,0.00,,,0.00,WUHU216DAVISVP2,2013-01-19 05:37:00,
2013-01-19 00:42:00,36.1,27.0,29.95,North,355,0.0,0.0,69,0.00,,,0.00,WUHU216DAVISVP2,2013-01-19 05:42:00,
2013-01-19 00:47:00,36.2,27.1,29.96,NE,47,0.0,0.0,69,0.00,,,0.00,WUHU216DAVISVP2,2013-01-19 05:47:00,
2013-01-19 00:52:00,36.3,26.8,29.95,NNE,33,0.0,0.0,68,0.00,,,0.00,WUHU216DAVISVP2,2013-01-19 05:52:00,
2013-01-19 00:57:00,36.3,27.2,29.95,NE,42,0.0,0.0,69,0.00,,,0.00,WUHU216DAVISVP2,2013-01-19 05:57:00,
2013-01-19 01:02:00,36.3,26.8,29.95,NNE,24,0.0,0.0,68,0.00,,,0.00,WUHU216DAVISVP2,2013-01-19 06:02:00,
2013-01-19 01:07:00,36.4,26.9,29.95,NE,40,0.0,0.0,68,0.00,,,0.00,WUHU216DAVISVP2,2013-01-19 06:07:00,
2013-01-19 01:12:00,36.4,27.3,29.95,NNE,22,0.0,0.0,69,0.00,,,0.00,WUHU216DAVISVP2,2013-01-19 06:12:00,
2013-01-19 01:18:00,36.4,26.9,29.95,NNE,24,0.0,0.0,68,0.00,,,0.00,WUHU216DAVISVP2,2013-01-19 06:18:00,
2013-01-19 01:23:00,36.5,26.9,29.95,North,5,0.0,0.0,68,0.00,,,0.00,WUHU216DAVISVP2,2013-01-19 06:23:00,
2013-01-19 01:28:00,36.5,26.9,29.95,North,5,0.0,0.0,68,0.00,,,0.00,WUHU216DAVISVP2,2013-01-19 06:28:00,
2013-01-19 01:33:00,36.5,27.3,29.94,NE,40,0.0,0.0,69,0.00,,,0.00,WUHU216DAVISVP2,2013-01-19 06:33:00,
2013-01-19 01:38:00,36.7,27.1,29.94,NE,39,0.0,0.0,68,0.00,,,0.00,WUHU216DAVISVP2,2013-01-19 06:38:00,
2013-01-19 01:43:00,36.8,27.2,29.94,NE,48,0.0,0.0,68,0.00,,,0.00,WUHU216DAVISVP2,2013-01-19 06:43:00,
2013-01-19 01:48:00,36.8,27.2,29.94,NNE,24,0.0,0.0,68,0.00,,,0.00,WUHU216DAVISVP2,2013-01-19 06:48:00,
2013-01-19 01:53:00,36.8,27.2,29.94,NNE,24,0.0,0.0,68,0.00,,,0.00,WUHU216DAVISVP2,2013-01-19 06:53:00,
2013-01-19 01:58:00,36.8,26.9,29.94,NNE,26,0.0,0.0,67,0.00,,,0.00,WUHU216DAVISVP2,2013-01-19 06:58:00,
2013-01-19 01:59:00,36.8,26.9,29.94,North,5,0.0,0.0,67,0.00,,,0.00,WUHU216DAVISVP2,2013-01-19 06:59:00,
2013-01-19 02:04:00,36.8,26.9,29.94,North,5,0.0,0.0,67,0.00,,,0.00,WUHU216DAVISVP2,2013-01-19 07:04:00,
2013-01-19 02:09:00,36.8,26.9,29.94,North,5,0.0,0.0,67,0.00,,,0.00,WUHU216DAVISVP2,2013-01-19 07:09:00,
2013-01-19 02:14:00,36.9,27.4,29.94,North,5,0.0,0.0,68,0.00,,,0.00,WUHU216DAVISVP2,2013-01-19 07:14:00,
2013-01-19 02:19:00,36.9,27.0,29.94,NE,48,0.0,0.0,67,0.00,,,0.00,WUHU216DAVISVP2,2013-01-19 07:19:00,
2013-01-19 02:24:00,36.9,27.4,29.94,North,350,0.0,0.0,68,0.00,,,0.00,WUHU216DAVISVP2,2013-01-19 07:24:00,
2013-01-19 02:29:00,36.9,27.0,29.94,NNE,17,0.0,0.0,67,0.00,,,0.00,WUHU216DAVISVP2,2013-01-19 07:29:00,
2013-01-19 02:34:00,36.9,26.7,29.94,ENE,74,0.0,0.0,66,0.00,,,0.00,WUHU216DAVISVP2,2013-01-19 07:34:00,
2013-01-19 02:40:00,36.9,27.0,29.94,NE,41,0.0,0.0,67,0.00,,,0.00,WUHU216DAVISVP2,2013-01-19 07:40:00,
2013-01-19 02:42:00,37.0,27.5,29.94,NE,40,0.0,0.0,68,0.00,,,0.00,WUHU216DAVISVP2,2013-01-19 07:42:00,
2013-01-19 02:45:00,37.0,27.5,29.94,NE,40,0.0,0.0,68,0.00,,,0.00,WUHU216DAVISVP2,2013-01-19 07:45:00,
2013-01-19 02:50:00,37.0,27.5,29.94,NE,40,0.0,0.0,68,0.00,,,0.00,WUHU216DAVISVP2,2013-01-19 07:50:00,
2013-01-19 02:55:00,37.3,27.4,29.93,NNE,24,0.0,0.0,67,0.00,,,0.00,WUHU216DAVISVP2,2013-01-19 07:55:00,
2013-01-19 03:00:00,37.3,27.4,29.93,North,360,0.0,0.0,67,0.00,,,0.00,WUHU216DAVISVP2,2013-01-19 08:00:00,
2013-01-19 03:05:00,37.3,27.4,29.93,North,360,0.0,0.0,67,0.00,,,0.00,WUHU216DAVISVP2,2013-01-19 08:05:00,
2013-01-19 03:10:00,37.1,27.2,29.93,NNE,17,0.0,0.0,67,0.00,,,0.00,WUHU216DAVISVP2,2013-01-19 08:10:00,
2013-01-19 03:15:00,37.1,27.2,29.93,NNE,16,0.0,0.0,67,0.00,,,0.00,WUHU216DAVISVP2,2013-01-19 08:15:00,
2013-01-19 03:20:00,37.1,27.2,29.93,NNE,16,0.0,0.0,67,0.00,,,0.00,WUHU216DAVISVP2,2013-01-19 08:20:00,
2013-01-19 03:25:00,37.3,27.3,29.94,North,5,0.0,0.0,67,0.00,,,0.00,WUHU216DAVISVP2,2013-01-19 08:25:00,
2013-01-19 03:30:00,37.3,27.3,29.94,NE,40,0.0,0.0,67,0.00,,,0.00,WUHU216DAVISVP2,2013-01-19 08:30:00,
2013-01-19 03:36:00,37.3,27.3,29.94,WSW,247,0.0,0.0,67,0.00,,,0.00,WUHU216DAVISVP2,2013-01-19 08:36:00,
2013-01-19 03:41:00,37.1,27.5,29.94,NNE,12,0.0,0.0,68,0.00,,,0.00,WUHU216DAVISVP2,2013-01-19 08:41:00,
2013-01-19 03:46:00,37.1,27.5,29.94,NNE,32,0.0,0.0,68,0.00,,,0.00,WUHU216DAVISVP2,2013-01-19 08:46:00,
2013-01-19 03:51:00,37.0,27.4,29.94,NNE,32,0.0,0.0,68,0.00,,,0.00,WUHU216DAVISVP2,2013-01-19 08:51:00,
2013-01-19 03:56:00,36.9,27.3,29.94,NE,42,0.0,0.0,68,0.00,,,0.00,WUHU216DAVISVP2,2013-01-19 08:56:00,
2013-01-19 04:01:00,36.8,27.3,29.94,East,90,0.0,0.0,68,0.00,,,0.00,WUHU216DAVISVP2,2013-01-19 09:01:00,
2013-01-19 04:06:00,36.8,27.7,29.93,WSW,246,0.0,0.0,69,0.00,,,0.00,WUHU216DAVISVP2,2013-01-19 09:06:00,
2013-01-19 04:11:00,36.7,27.6,29.94,NE,53,0.0,0.0,69,0.00,,,0.00,WUHU216DAVISVP2,2013-01-19 09:11:00,
2013-01-19 04:16:00,36.7,27.6,29.94,ESE,123,0.0,0.0,69,0.00,,,0.00,WUHU216DAVISVP2,2013-01-19 09:16:00,
2013-01-19 04:22:00,36.7,27.6,29.93,ESE,113,0.0,0.0,69,0.00,,,0.00,WUHU216DAVISVP2,2013-01-19 09:22:00,
2013-01-19 04:27:00,36.6,27.5,29.93,East,80,0.0,0.0,69,0.00,,,0.00,WUHU216DAVISVP2,2013-01-19 09:27:00,
2013-01-19 04:32:00,36.6,27.8,29.93,NE,34,0.0,0.0,70,0.00,,,0.00,WUHU216DAVISVP2,2013-01-19 09:32:00,
2013-01-19 04:37:00,36.6,27.8,29.93,NNE,30,0.0,0.0,70,0.00,,,0.00,WUHU216DAVISVP2,2013-01-19 09:37:00,
2013-01-19 04:42:00,36.7,27.9,29.93,NE,34,0.0,0.0,70,0.00,,,0.00,WUHU216DAVISVP2,2013-01-19 09:42:00,
2013-01-19 04:47:00,36.7,27.9,29.92,North,351,0.0,0.0,70,0.00,,,0.00,WUHU216DAVISVP2,2013-01-19 09:47:00,
2013-01-19 04:52:00,36.7,27.9,29.92,NE,39,0.0,0.0,70,0.00,,,0.00,WUHU216DAVISVP2,2013-01-19 09:52:00,
2013-01-19 04:57:00,36.8,27.7,29.92,NE,54,0.0,0.0,69,0.00,,,0.00,WUHU216DAVISVP2,2013-01-19 09:57:00,
2013-01-19 05:02:00,36.8,28.0,29.92,NE,51,0.0,0.0,70,0.00,,,0.00,WUHU216DAVISVP2,2013-01-19 10:02:00,
2013-01-19 05:07:00,36.9,28.1,29.92,NE,38,0.0,0.0,70,0.00,,,0.00,WUHU216DAVISVP2,2013-01-19 10:07:00,
2013-01-19 05:13:00,37.0,27.8,29.92,NE,50,0.0,0.0,69,0.00,,,0.00,WUHU216DAVISVP2,2013-01-19 10:13:00,
2013-01-19 05:18:00,37.0,27.8,29.92,NE,34,0.0,0.0,69,0.00,,,0.00,WUHU216DAVISVP2,2013-01-19 10:18:00,
2013-01-19 05:23:00,37.1,28.3,29.92,NNE,32,0.0,0.0,70,0.00,,,0.00,WUHU216DAVISVP2,2013-01-19 10:23:00,
2013-01-19 05:28:00,37.1,28.3,29.93,NE,36,0.0,0.0,70,0.00,,,0.00,WUHU216DAVISVP2,2013-01-19 10:28:00,
2013-01-19 05:33:00,37.0,27.8,29.93,North,360,0.0,0.0,69,0.00,,,0.00,WUHU216DAVISVP2,2013-01-19 10:33:00,
2013-01-19 05:38:00,36.9,28.1,29.93,NNE,29,0.0,0.0,70,0.00,,,0.00,WUHU216DAVISVP2,2013-01-19 10:38:00,
2013-01-19 05:43:00,36.9,28.1,29.93,ENE,57,0.0,0.0,70,0.00,,,0.00,WUHU216DAVISVP2,2013-01-19 10:43:00,
2013-01-19 05:48:00,36.8,28.3,29.93,NE,36,0.0,0.0,71,0.00,,,0.00,WUHU216DAVISVP2,2013-01-19 10:48:00,
2013-01-19 05:53:00,37.0,28.5,29.93,NE,42,0.0,0.0,71,0.00,,,0.00,WUHU216DAVISVP2,2013-01-19 10:53:00,
2013-01-19 05:58:00,37.1,28.3,29.93,NE,34,0.0,0.0,70,0.00,,,0.00,WUHU216DAVISVP2,2013-01-19 10:58:00,
2013-01-19 06:03:00,37.1,28.3,29.93,NE,51,0.0,0.0,70,0.00,,,0.00,WUHU216DAVISVP2,2013-01-19 11:03:00,
2013-01-19 06:08:00,37.1,28.3,29.93,NE,38,0.0,0.0,70,0.00,,,0.00,WUHU216DAVISVP2,2013-01-19 11:08:00,
2013-01-19 06:13:00,37.0,28.2,29.93,NE,54,0.0,0.0,70,0.00,,,0.00,WUHU216DAVISVP2,2013-01-19 11:13:00,
2013-01-19 06:18:00,37.0,28.5,29.93,NE,44,0.0,0.0,71,0.00,,,0.00,WUHU216DAVISVP2,2013-01-19 11:18:00,
2013-01-19 06:24:00,37.1,28.6,29.93,North,350,0.0,0.0,71,0.00,,,0.00,WUHU216DAVISVP2,2013-01-19 11:24:00,
2013-01-19 06:30:00,37.1,28.6,29.93,NNE,22,0.0,0.0,71,0.00,,,0.00,WUHU216DAVISVP2,2013-01-19 11:30:00,
2013-01-19 06:36:00,37.0,28.2,29.94,NE,43,0.0,0.0,70,0.00,,,0.00,WUHU216DAVISVP2,2013-01-19 11:36:00,
2013-01-19 06:43:00,37.0,28.5,29.93,North,11,0.0,0.0,71,0.00,,,0.00,WUHU216DAVISVP2,2013-01-19 11:43:00,
2013-01-19 06:49:00,37.0,28.5,29.93,NE,40,0.0,0.0,71,0.00,,,0.00,WUHU216DAVISVP2,2013-01-19 11:49:00,
2013-01-19 06:55:00,37.0,28.5,29.93,NE,46,0.0,0.0,71,0.00,,,0.00,WUHU216DAVISVP2,2013-01-19 11:55:00,
2013-01-19 07:01:00,37.0,28.5,29.92,NNE,14,0.0,0.0,71,0.00,,,0.00,WUHU216DAVISVP2,2013-01-19 12:01:00,
2013-01-19 07:07:00,37.0,28.5,29.93,NE,41,0.0,0.0,71,0.00,,,0.00,WUHU216DAVISVP2,2013-01-19 12:07:00,
2013-01-19 07:13:00,36.7,28.2,29.93,SSE,167,0.0,0.0,71,0.00,,,0.00,WUHU216DAVISVP2,2013-01-19 12:13:00,
2013-01-19 07:20:00,36.7,28.6,29.93,SSE,167,0.0,0.0,72,0.00,,,0.00,WUHU216DAVISVP2,2013-01-19 12:20:00,
2013-01-19 07:26:00,36.7,28.6,29.93,SSE,167,0.0,0.0,72,0.00,,,0.00,WUHU216DAVISVP2,2013-01-19 12:26:00,
2013-01-19 07:32:00,36.7,28.6,29.93,SSE,167,0.0,0.0,72,0.00,,,0.00,WUHU216DAVISVP2,2013-01-19 12:32:00,
2013-01-19 07:38:00,36.7,28.6,29.94,SSE,167,0.0,0.0,72,0.00,,,0.00,WUHU216DAVISVP2,2013-01-19 12:38:00,
2013-01-19 07:44:00,36.6,28.8,29.93,SSE,167,0.0,0.0,73,0.00,,,0.00,WUHU216DAVISVP2,2013-01-19 12:44:00,
2013-01-19 07:47:00,36.6,28.8,29.93,SSE,167,0.0,0.0,73,0.00,,,0.00,WUHU216DAVISVP2,2013-01-19 12:47:00,
2013-01-19 07:48:00,36.6,28.8,29.93,SSE,167,0.0,0.0,73,0.00,,,0.00,WUHU216DAVISVP2,2013-01-19 12:48:00,
2013-01-19 07:50:00,36.7,28.6,29.93,SSE,167,0.0,0.0,72,0.00,,,0.00,WUHU216DAVISVP2,2013-01-19 12:50:00,
2013-01-19 07:55:00,36.6,28.8,29.93,SSE,167,0.0,0.0,73,0.00,,,0.00,WUHU216DAVISVP2,2013-01-19 12:55:00,
2013-01-19 07:57:00,36.7,28.9,29.93,SSE,167,0.0,0.0,73,0.00,,,0.00,WUHU216DAVISVP2,2013-01-19 12:57:00,
2013-01-19 08:00:00,36.8,29.0,29.93,SSE,167,0.0,0.0,73,0.00,,,0.00,WUHU216DAVISVP2,2013-01-19 13:00:00,
2013-01-19 08:03:00,36.8,28.7,29.93,SSE,167,0.0,0.0,72,0.00,,,0.00,WUHU216DAVISVP2,2013-01-19 13:03:00,
2013-01-19 08:05:00,36.8,28.7,29.93,NE,37,0.0,0.0,72,0.00,,,0.00,WUHU216DAVISVP2,2013-01-19 13:05:00,
2013-01-19 08:08:00,36.8,29.0,29.93,NE,36,0.0,0.0,73,0.00,,,0.00,WUHU216DAVISVP2,2013-01-19 13:08:00,
2013-01-19 08:11:00,36.8,29.0,29.93,NNE,26,0.0,0.0,73,0.00,,,0.00,WUHU216DAVISVP2,2013-01-19 13:11:00,
2013-01-19 08:13:00,36.8,28.7,29.93,NNE,32,0.0,0.0,72,0.00,,,0.00,WUHU216DAVISVP2,2013-01-19 13:13:00,
2013-01-19 08:16:00,36.8,28.7,29.93,NNE,13,0.0,0.0,72,0.00,,,0.00,WUHU216DAVISVP2,2013-01-19 13:16:00,
2013-01-19 08:21:00,36.5,28.4,29.93,NNE,33,0.0,0.0,72,0.00,,,0.00,WUHU216DAVISVP2,2013-01-19 13:21:00,
2013-01-19 08:26:00,36.4,28.6,29.93,NE,55,0.0,0.0,73,0.00,,,0.00,WUHU216DAVISVP2,2013-01-19 13:26:00,
2013-01-19 08:31:00,36.5,28.7,29.93,SSW,205,0.0,0.0,73,0.00,,,0.00,WUHU216DAVISVP2,2013-01-19 13:31:00,
2013-01-19 08:37:00,36.4,28.6,29.93,NE,52,0.0,0.0,73,0.00,,,0.00,WUHU216DAVISVP2,2013-01-19 13:37:00,
2013-01-19 08:42:00,36.5,29.1,29.93,NNE,28,0.0,0.0,74,0.00,,,0.00,WUHU216DAVISVP2,2013-01-19 13:42:00,
2013-01-19 08:47:00,36.4,29.0,29.93,NE,35,0.0,0.0,74,0.00,,,0.00,WUHU216DAVISVP2,2013-01-19 13:47:00,
2013-01-19 08:52:00,36.5,28.7,29.94,NE,55,0.0,0.0,73,0.00,,,0.00,WUHU216DAVISVP2,2013-01-19 13:52:00,
2013-01-19 08:57:00,36.8,29.0,29.94,NE,44,0.0,0.0,73,0.00,,,0.00,WUHU216DAVISVP2,2013-01-19 13:57:00,
2013-01-19 09:02:00,36.9,29.1,29.94,NNE,32,0.0,0.0,73,0.00,,,0.00,WUHU216DAVISVP2,2013-01-19 14:02:00,
2013-01-19 09:07:00,37.0,29.2,29.94,NE,46,0.0,0.0,73,0.00,,,0.00,WUHU216DAVISVP2,2013-01-19 14:07:00,
2013-01-19 09:12:00,37.2,29.4,29.94,NE,55,0.0,0.0,73,0.00,,,0.00,WUHU216DAVISVP2,2013-01-19 14:12:00,
2013-01-19 09:17:00,37.3,29.2,29.94,WSW,258,0.0,0.0,72,0.00,,,0.00,WUHU216DAVISVP2,2013-01-19 14:17:00,
2013-01-19 09:22:00,37.3,29.2,29.94,WSW,258,0.0,0.0,72,0.00,,,0.00,WUHU216DAVISVP2,2013-01-19 14:22:00,
2013-01-19 09:28:00,37.8,29.3,29.94,NE,40,0.0,0.0,71,0.00,,,0.00,WUHU216DAVISVP2,2013-01-19 14:28:00,
2013-01-19 09:33:00,38.0,29.8,29.93,NE,55,0.0,0.0,72,0.00,,,0.00,WUHU216DAVISVP2,2013-01-19 14:33:00,
2013-01-19 09:38:00,38.3,29.8,29.94,NE,52,0.0,0.0,71,0.00,,,0.00,WUHU216DAVISVP2,2013-01-19 14:38:00,
2013-01-19 09:43:00,38.6,30.1,29.93,NE,35,0.0,0.0,71,0.00,,,0.00,WUHU216DAVISVP2,2013-01-19 14:43:00,
2013-01-19 09:48:00,38.8,29.9,29.93,NNE,14,0.0,0.0,70,0.00,,,0.00,WUHU216DAVISVP2,2013-01-19 14:48:00,
2013-01-19 09:53:00,38.9,30.0,29.94,NE,37,0.0,0.0,70,0.00,,,0.00,WUHU216DAVISVP2,2013-01-19 14:53:00,
2013-01-19 09:58:00,39.0,30.1,29.94,NNE,29,0.0,0.0,70,0.00,,,0.00,WUHU216DAVISVP2,2013-01-19 14:58:00,
2013-01-19 10:03:00,39.5,30.6,29.94,NE,49,0.0,0.0,70,0.00,,,0.00,WUHU216DAVISVP2,2013-01-19 15:03:00,
2013-01-19 10:09:00,39.7,30.4,29.93,NNE,13,0.0,0.0,69,0.00,,,0.00,WUHU216DAVISVP2,2013-01-19 15:09:00,
2013-01-19 10:14:00,39.9,30.6,29.93,NE,39,0.0,0.0,69,0.00,,,0.00,WUHU216DAVISVP2,2013-01-19 15:14:00,
2013-01-19 10:19:00,40.0,30.7,29.93,NNE,28,0.0,0.0,69,0.00,,,0.00,WUHU216DAVISVP2,2013-01-19 15:19:00,
2013-01-19 10:24:00,40.3,30.7,29.93,NNE,30,0.0,0.0,68,0.00,,,0.00,WUHU216DAVISVP2,2013-01-19 15:24:00,
2013-01-19 10:29:00,40.8,30.8,29.93,NNE,29,0.0,0.0,67,0.00,,,0.00,WUHU216DAVISVP2,2013-01-19 15:29:00,
2013-01-19 10:34:00,41.3,30.9,29.93,SSW,213,0.0,0.0,66,0.00,,,0.00,WUHU216DAVISVP2,2013-01-19 15:34:00,
2013-01-19 10:39:00,42.1,31.6,29.93,NE,49,0.0,0.0,66,0.00,,,0.00,WUHU216DAVISVP2,2013-01-19 15:39:00,
2013-01-19 10:44:00,42.9,31.6,29.93,ENE,59,0.0,0.0,64,0.00,,,0.00,WUHU216DAVISVP2,2013-01-19 15:44:00,
2013-01-19 10:49:00,43.6,31.9,29.92,NE,37,0.0,0.0,63,0.00,,,0.00,WUHU216DAVISVP2,2013-01-19 15:49:00,
2013-01-19 10:50:00,43.7,32.4,29.92,NE,52,0.0,0.0,64,0.00,,,0.00,WUHU216DAVISVP2,2013-01-19 15:50:00,
2013-01-19 10:54:00,43.7,32.4,29.92,NE,52,0.0,0.0,64,0.00,,,0.00,WUHU216DAVISVP2,2013-01-19 15:54:00,
2013-01-19 10:59:00,43.7,32.4,29.92,NE,52,0.0,0.0,64,0.00,,,0.00,WUHU216DAVISVP2,2013-01-19 15:59:00,
2013-01-19 11:04:00,44.6,32.1,29.92,NNE,13,0.0,0.0,61,0.00,,,0.00,WUHU216DAVISVP2,2013-01-19 16:04:00,
2013-01-19 11:09:00,45.2,32.6,29.91,NE,34,0.0,0.0,61,0.00,,,0.00,WUHU216DAVISVP2,2013-01-19 16:09:00,
2013-01-19 11:15:00,45.6,32.6,29.91,NW,315,0.0,0.0,60,0.00,,,0.00,WUHU216DAVISVP2,2013-01-19 16:15:00,
2013-01-19 11:20:00,46.0,33.0,29.90,NNE,30,0.0,0.0,60,0.00,,,0.00,WUHU216DAVISVP2,2013-01-19 16:20:00,
2013-01-19 11:25:00,46.4,32.9,29.90,North,9,0.0,0.0,59,0.00,,,0.00,WUHU216DAVISVP2,2013-01-19 16:25:00,
2013-01-19 11:30:00,46.8,32.9,29.90,NNE,32,0.0,0.0,58,0.00,,,0.00,WUHU216DAVISVP2,2013-01-19 16:30:00,
2013-01-19 11:35:00,46.9,33.0,29.90,ENE,59,0.0,0.0,58,0.00,,,0.00,WUHU216DAVISVP2,2013-01-19 16:35:00,
2013-01-19 11:40:00,47.5,33.1,29.89,West,281,0.0,0.0,57,0.00,,,0.00,WUHU216DAVISVP2,2013-01-19 16:40:00,
2013-01-19 11:46:00,47.7,33.3,29.89,NE,49,0.0,0.0,57,0.00,,,0.00,WUHU216DAVISVP2,2013-01-19 16:46:00,
2013-01-19 11:51:00,48.3,33.8,29.89,North,355,0.0,0.0,57,0.00,,,0.00,WUHU216DAVISVP2,2013-01-19 16:51:00,
2013-01-19 11:56:00,48.8,33.8,29.88,NNE,24,0.0,0.0,56,0.00,,,0.00,WUHU216DAVISVP2,2013-01-19 16:56:00,
2013-01-19 12:01:00,48.8,33.4,29.88,ENE,74,0.0,0.0,55,0.00,,,0.00,WUHU216DAVISVP2,2013-01-19 17:01:00,
2013-01-19 12:06:00,48.7,33.3,29.88,SW,231,0.0,0.0,55,0.00,,,0.00,WUHU216DAVISVP2,2013-01-19 17:06:00,
2013-01-19 12:08:00,48.7,33.3,29.87,SSE,168,0.0,0.0,55,0.00,,,0.00,WUHU216DAVISVP2,2013-01-19 17:08:00,
2013-01-19 12:11:00,48.8,33.4,29.87,SSE,168,0.0,0.0,55,0.00,,,0.00,WUHU216DAVISVP2,2013-01-19 17:11:00,
2013-01-19 12:15:00,49.2,33.3,29.86,West,275,0.0,0.0,54,0.00,,,0.00,WUHU216DAVISVP2,2013-01-19 17:15:00,
2013-01-19 12:16:00,48.7,33.3,29.87,SSE,168,0.0,0.0,55,0.00,,,0.00,WUHU216DAVISVP2,2013-01-19 17:16:00,
2013-01-19 12:20:00,49.6,33.7,29.86,NE,53,0.0,0.0,54,0.00,,,0.00,WUHU216DAVISVP2,2013-01-19 17:20:00,
2013-01-19 12:21:00,49.6,33.7,29.86,NE,53,0.0,0.0,54,0.00,,,0.00,WUHU216DAVISVP2,2013-01-19 17:21:00,
2013-01-19 12:26:00,49.8,33.8,29.85,NNE,20,0.0,0.0,54,0.00,,,0.00,WUHU216DAVISVP2,2013-01-19 17:26:00,
2013-01-19 12:27:00,49.9,33.9,29.85,NE,54,0.0,0.0,54,0.00,,,0.00,WUHU216DAVISVP2,2013-01-19 17:27:00,
2013-01-19 12:32:00,50.0,34.0,29.85,NNE,15,0.0,0.0,54,0.00,,,0.00,WUHU216DAVISVP2,2013-01-19 17:32:00,
2013-01-19 12:37:00,50.3,33.8,29.84,NE,49,0.0,0.0,53,0.00,,,0.00,WUHU216DAVISVP2,2013-01-19 17:37:00,
2013-01-19 12:38:00,50.3,33.8,29.84,WNW,288,0.0,0.0,53,0.00,,,0.00,WUHU216DAVISVP2,2013-01-19 17:38:00,
2013-01-19 12:42:00,50.4,33.9,29.84,SSE,168,0.0,0.0,53,0.00,,,0.00,WUHU216DAVISVP2,2013-01-19 17:42:00,
2013-01-19 12:44:00,50.6,34.1,29.84,North,355,0.0,0.0,53,0.00,,,0.00,WUHU216DAVISVP2,2013-01-19 17:44:00,
2013-01-19 12:47:00,50.6,33.6,29.83,NNE,30,0.0,0.0,52,0.00,,,0.00,WUHU216DAVISVP2,2013-01-19 17:47:00,
2013-01-19 12:51:00,50.7,33.7,29.83,SW,230,0.0,0.0,52,0.00,,,0.00,WUHU216DAVISVP2,2013-01-19 17:51:00,
2013-01-19 12:52:00,50.7,33.7,29.83,SSE,168,0.0,0.0,52,0.00,,,0.00,WUHU216DAVISVP2,2013-01-19 17:52:00,
2013-01-19 12:57:00,51.0,34.0,29.82,West,279,0.0,0.0,52,0.00,,,0.00,WUHU216DAVISVP2,2013-01-19 17:57:00,
2013-01-19 13:02:00,51.1,34.1,29.81,NNE,32,0.0,0.0,52,0.00,,,0.00,WUHU216DAVISVP2,2013-01-19 18:02:00,
2013-01-19 13:04:00,51.2,34.2,29.81,North,350,0.0,0.0,52,0.00,,,0.00,WUHU216DAVISVP2,2013-01-19 18:04:00,
2013-01-19 13:07:00,51.2,34.2,29.81,North,350,0.0,0.0,52,0.00,,,0.00,WUHU216DAVISVP2,2013-01-19 18:07:00,
2013-01-19 13:10:00,51.0,34.0,29.81,NE,44,0.0,0.0,52,0.00,,,0.00,WUHU216DAVISVP2,2013-01-19 18:10:00,
2013-01-19 13:12:00,50.6,33.1,29.80,SSE,167,0.0,0.0,51,0.00,,,0.00,WUHU216DAVISVP2,2013-01-19 18:12:00,
2013-01-19 13:15:00,50.0,33.6,29.81,ENE,67,0.0,0.0,53,0.00,,,0.00,WUHU216DAVISVP2,2013-01-19 18:15:00,
2013-01-19 13:18:00,49.9,33.9,29.80,NE,45,0.0,0.0,54,0.00,,,0.00,WUHU216DAVISVP2,2013-01-19 18:18:00,
2013-01-19 13:20:00,49.6,33.7,29.80,NE,37,0.0,0.0,54,0.00,,,0.00,WUHU216DAVISVP2,2013-01-19 18:20:00,
2013-01-19 13:23:00,49.5,34.0,29.80,NNE,26,0.0,0.0,55,0.00,,,0.00,WUHU216DAVISVP2,2013-01-19 18:23:00,
2013-01-19 13:28:00,49.3,33.9,29.80,WNW,298,0.0,0.0,55,0.00,,,0.00,WUHU216DAVISVP2,2013-01-19 18:28:00,
2013-01-19 13:34:00,49.1,33.7,29.80,ENE,74,0.0,0.0,55,0.00,,,0.00,WUHU216DAVISVP2,2013-01-19 18:34:00,
2013-01-19 13:39:00,48.8,33.4,29.79,NNE,33,0.0,0.0,55,0.00,,,0.00,WUHU216DAVISVP2,2013-01-19 18:39:00,
2013-01-19 13:44:00,48.7,33.8,29.78,NNE,28,0.0,0.0,56,0.00,,,0.00,WUHU216DAVISVP2,2013-01-19 18:44:00,
2013-01-19 13:49:00,48.7,33.8,29.78,NE,40,0.0,0.0,56,0.00,,,0.00,WUHU216DAVISVP2,2013-01-19 18:49:00,
2013-01-19 13:54:00,49.0,33.6,29.78,North,5,0.0,0.0,55,0.00,,,0.00,WUHU216DAVISVP2,2013-01-19 18:54:00,
2013-01-19 13:59:00,49.1,34.1,29.78,NNE,29,0.0,0.0,56,0.00,,,0.00,WUHU216DAVISVP2,2013-01-19 18:59:00,
2013-01-19 14:04:00,49.1,34.1,29.78,East,93,0.0,0.0,56,0.00,,,0.00,WUHU216DAVISVP2,2013-01-19 19:04:00,
2013-01-19 14:09:00,49.1,34.1,29.77,NNW,346,0.0,0.0,56,0.00,,,0.00,WUHU216DAVISVP2,2013-01-19 19:09:00,
2013-01-19 14:15:00,49.2,33.8,29.77,WNW,288,0.0,0.0,55,0.00,,,0.00,WUHU216DAVISVP2,2013-01-19 19:15:00,
2013-01-19 14:20:00,49.2,34.2,29.77,NNW,348,0.0,0.0,56,0.00,,,0.00,WUHU216DAVISVP2,2013-01-19 19:20:00,
2013-01-19 14:25:00,49.2,34.2,29.77,NNW,346,0.0,0.0,56,0.00,,,0.00,WUHU216DAVISVP2,2013-01-19 19:25:00,
2013-01-19 14:30:00,49.1,34.1,29.76,NNW,347,0.0,0.0,56,0.00,,,0.00,WUHU216DAVISVP2,2013-01-19 19:30:00,
2013-01-19 14:35:00,49.2,34.2,29.77,NE,49,0.0,0.0,56,0.00,,,0.00,WUHU216DAVISVP2,2013-01-19 19:35:00,
2013-01-19 14:40:00,49.2,34.2,29.76,North,360,0.0,0.0,56,0.00,,,0.00,WUHU216DAVISVP2,2013-01-19 19:40:00,
2013-01-19 14:45:00,49.1,34.1,29.76,NNW,329,0.0,0.0,56,0.00,,,0.00,WUHU216DAVISVP2,2013-01-19 19:45:00,
2013-01-19 14:50:00,49.1,34.6,29.76,NE,44,0.0,0.0,57,0.00,,,0.00,WUHU216DAVISVP2,2013-01-19 19:50:00,
2013-01-19 14:55:00,49.1,34.6,29.76,NE,55,0.0,0.0,57,0.00,,,0.00,WUHU216DAVISVP2,2013-01-19 19:55:00,
2013-01-19 15:02:00,49.1,34.6,29.75,NNE,33,0.0,0.0,57,0.00,,,0.00,WUHU216DAVISVP2,2013-01-19 20:02:00,
2013-01-19 15:06:00,49.0,34.9,29.75,NE,45,0.0,0.0,58,0.00,,,0.00,WUHU216DAVISVP2,2013-01-19 20:06:00,
2013-01-19 15:07:00,49.1,34.6,29.75,NNE,33,0.0,0.0,57,0.00,,,0.00,WUHU216DAVISVP2,2013-01-19 20:07:00,
2013-01-19 15:12:00,49.0,34.9,29.75,NE,45,0.0,0.0,58,0.00,,,0.00,WUHU216DAVISVP2,2013-01-19 20:12:00,
2013-01-19 15:13:00,48.7,34.7,29.74,NE,38,0.0,0.0,58,0.00,,,0.00,WUHU216DAVISVP2,2013-01-19 20:13:00,
2013-01-19 15:17:00,48.6,34.6,29.74,NNE,30,0.0,0.0,58,0.00,,,0.00,WUHU216DAVISVP2,2013-01-19 20:17:00,
2013-01-19 15:19:00,48.6,34.6,29.74,North,5,0.0,0.0,58,0.00,,,0.00,WUHU216DAVISVP2,2013-01-19 20:19:00,
2013-01-19 15:22:00,48.7,34.7,29.74,North,355,0.0,0.0,58,0.00,,,0.00,WUHU216DAVISVP2,2013-01-19 20:22:00,
2013-01-19 15:24:00,48.7,34.7,29.74,North,350,0.0,0.0,58,0.00,,,0.00,WUHU216DAVISVP2,2013-01-19 20:24:00,
2013-01-19 15:27:00,48.7,34.7,29.74,NNE,30,0.0,0.0,58,0.00,,,0.00,WUHU216DAVISVP2,2013-01-19 20:27:00,
2013-01-19 15:30:00,48.7,35.1,29.74,NNE,22,0.0,0.0,59,0.00,,,0.00,WUHU216DAVISVP2,2013-01-19 20:30:00,
2013-01-19 15:32:00,48.7,34.7,29.74,North,5,0.0,0.0,58,0.00,,,0.00,WUHU216DAVISVP2,2013-01-19 20:32:00,
2013-01-19 15:38:00,49.1,35.0,29.73,North,360,0.0,0.0,58,0.00,,,0.00,WUHU216DAVISVP2,2013-01-19 20:38:00,
2013-01-19 15:43:00,49.2,35.1,29.73,NNE,28,0.0,0.0,58,0.00,,,0.00,WUHU216DAVISVP2,2013-01-19 20:43:00,
2013-01-19 15:48:00,49.2,35.1,29.72,NNE,30,0.0,0.0,58,0.00,,,0.00,WUHU216DAVISVP2,2013-01-19 20:48:00,
2013-01-19 15:53:00,49.1,35.0,29.72,ENE,66,0.0,0.0,58,0.00,,,0.00,WUHU216DAVISVP2,2013-01-19 20:53:00,
2013-01-19 15:58:00,49.1,35.0,29.72,NE,42,0.0,0.0,58,0.00,,,0.00,WUHU216DAVISVP2,2013-01-19 20:58:00,
2013-01-19 16:00:00,49.0,34.9,29.72,NNE,29,0.0,0.0,58,0.00,,,0.00,WUHU216DAVISVP2,2013-01-19 21:00:00,
2013-01-19 16:03:00,49.0,34.9,29.72,NNE,29,0.0,0.0,58,0.00,,,0.00,WUHU216DAVISVP2,2013-01-19 21:03:00,
2013-01-19 16:08:00,48.8,34.7,29.72,NE,36,0.0,0.0,58,0.00,,,0.00,WUHU216DAVISVP2,2013-01-19 21:08:00,
2013-01-19 16:13:00,48.6,35.0,29.72,North,11,0.0,0.0,59,0.00,,,0.00,WUHU216DAVISVP2,2013-01-19 21:13:00,
2013-01-19 16:18:00,48.5,34.9,29.72,NNW,328,0.0,0.0,59,0.00,,,0.00,WUHU216DAVISVP2,2013-01-19 21:18:00,
2013-01-19 16:23:00,48.4,34.8,29.72,NE,54,0.0,0.0,59,0.00,,,0.00,WUHU216DAVISVP2,2013-01-19 21:23:00,
2013-01-19 16:28:00,48.3,35.1,29.72,ENE,71,0.0,0.0,60,0.00,,,0.00,WUHU216DAVISVP2,2013-01-19 21:28:00,
2013-01-19 16:29:00,48.3,35.1,29.72,ENE,71,0.0,0.0,60,0.00,,,0.00,WUHU216DAVISVP2,2013-01-19 21:29:00,
2013-01-19 16:34:00,48.2,35.0,29.72,NNE,16,0.0,0.0,60,0.00,,,0.00,WUHU216DAVISVP2,2013-01-19 21:34:00,
2013-01-19 16:40:00,48.0,35.3,29.71,NE,38,0.0,0.0,61,0.00,,,0.00,WUHU216DAVISVP2,2013-01-19 21:40:00,
2013-01-19 16:45:00,47.9,35.2,29.72,NE,48,0.0,0.0,61,0.00,,,0.00,WUHU216DAVISVP2,2013-01-19 21:45:00,
2013-01-19 16:46:00,47.9,35.2,29.72,NE,51,0.0,0.0,61,0.00,,,0.00,WUHU216DAVISVP2,2013-01-19 21:46:00,
2013-01-19 16:50:00,47.8,35.1,29.72,NNE,30,0.0,0.0,61,0.00,,,0.00,WUHU216DAVISVP2,2013-01-19 21:50:00,
2013-01-19 16:56:00,47.9,35.2,29.72,NE,51,0.0,0.0,61,0.00,,,0.00,WUHU216DAVISVP2,2013-01-19 21:56:00,
2013-01-19 17:01:00,47.6,34.9,29.73,North,351,0.0,0.0,61,0.00,,,0.00,WUHU216DAVISVP2,2013-01-19 22:01:00,
2013-01-19 17:06:00,47.5,34.4,29.73,ENE,67,0.0,0.0,60,0.00,,,0.00,WUHU216DAVISVP2,2013-01-19 22:06:00,
2013-01-19 17:11:00,47.4,34.7,29.73,NE,42,0.0,0.0,61,0.00,,,0.00,WUHU216DAVISVP2,2013-01-19 22:11:00,
2013-01-19 17:16:00,47.2,34.5,29.73,NNW,347,0.0,0.0,61,0.00,,,0.00,WUHU216DAVISVP2,2013-01-19 22:16:00,
2013-01-19 17:21:00,47.0,34.3,29.74,NNE,32,0.0,0.0,61,0.00,,,0.00,WUHU216DAVISVP2,2013-01-19 22:21:00,
2013-01-19 17:26:00,47.0,34.7,29.73,NNE,19,0.0,0.0,62,0.00,,,0.00,WUHU216DAVISVP2,2013-01-19 22:26:00,
2013-01-19 17:31:00,47.0,34.7,29.73,NNE,19,0.0,0.0,62,0.00,,,0.00,WUHU216DAVISVP2,2013-01-19 22:31:00,
2013-01-19 17:37:00,47.0,34.6,29.73,NNE,26,0.0,0.0,62,0.00,,,0.00,WUHU216DAVISVP2,2013-01-19 22:37:00,
2013-01-19 17:42:00,46.8,35.0,29.72,NE,41,0.0,0.0,63,0.00,,,0.00,WUHU216DAVISVP2,2013-01-19 22:42:00,
2013-01-19 17:47:00,46.8,35.0,29.72,NE,34,0.0,0.0,63,0.00,,,0.00,WUHU216DAVISVP2,2013-01-19 22:47:00,
2013-01-19 17:52:00,46.7,35.3,29.71,NE,49,0.0,0.0,64,0.00,,,0.00,WUHU216DAVISVP2,2013-01-19 22:52:00,
2013-01-19 17:56:00,46.7,35.3,29.71,NNE,12,0.0,0.0,64,0.00,,,0.00,WUHU216DAVISVP2,2013-01-19 22:56:00,
2013-01-19 17:57:00,46.7,35.3,29.71,NNE,12,0.0,0.0,64,0.00,,,0.00,WUHU216DAVISVP2,2013-01-19 22:57:00,
2013-01-19 18:02:00,46.7,35.7,29.71,NNE,32,0.0,0.0,65,0.00,,,0.00,WUHU216DAVISVP2,2013-01-19 23:02:00,
2013-01-19 18:07:00,46.7,35.2,29.71,NNE,25,0.0,0.0,64,0.00,,,0.00,WUHU216DAVISVP2,2013-01-19 23:07:00,
2013-01-19 18:12:00,46.8,35.3,29.70,NE,34,0.0,0.0,64,0.00,,,0.00,WUHU216DAVISVP2,2013-01-19 23:12:00,
2013-01-19 18:18:00,46.5,35.4,29.70,NE,40,0.0,0.0,65,0.00,,,0.00,WUHU216DAVISVP2,2013-01-19 23:18:00,
2013-01-19 18:23:00,46.5,35.4,29.70,NNE,30,0.0,0.0,65,0.00,,,0.00,WUHU216DAVISVP2,2013-01-19 23:23:00,
2013-01-19 18:28:00,46.5,35.4,29.70,NNE,24,0.0,0.0,65,0.00,,,0.00,WUHU216DAVISVP2,2013-01-19 23:28:00,
2013-01-19 18:33:00,46.5,35.4,29.70,NE,37,0.0,0.0,65,0.00,,,0.00,WUHU216DAVISVP2,2013-01-19 23:33:00,
2013-01-19 18:38:00,46.3,35.3,29.70,NE,34,0.0,0.0,65,0.00,,,0.00,WUHU216DAVISVP2,2013-01-19 23:38:00,
2013-01-19 18:43:00,46.2,35.6,29.70,NNE,32,0.0,0.0,66,0.00,,,0.00,WUHU216DAVISVP2,2013-01-19 23:43:00,
2013-01-19 18:48:00,46.2,35.2,29.70,NE,36,0.0,0.0,65,0.00,,,0.00,WUHU216DAVISVP2,2013-01-19 23:48:00,
2013-01-19 18:53:00,46.0,35.4,29.70,NE,40,0.0,0.0,66,0.00,,,0.00,WUHU216DAVISVP2,2013-01-19 23:53:00,
2013-01-19 18:59:00,46.0,35.8,29.70,NE,42,0.0,0.0,67,0.00,,,0.00,WUHU216DAVISVP2,2013-01-19 23:59:00,
2013-01-19 19:04:00,45.9,35.3,29.69,NE,40,0.0,0.0,66,0.00,,,0.00,WUHU216DAVISVP2,2013-01-20 00:04:00,
2013-01-19 19:09:00,45.9,35.3,29.69,NE,40,0.0,0.0,66,0.00,,,0.00,WUHU216DAVISVP2,2013-01-20 00:09:00,
2013-01-19 19:14:00,45.8,35.6,29.69,NNE,33,0.0,0.0,67,0.00,,,0.00,WUHU216DAVISVP2,2013-01-20 00:14:00,
2013-01-19 19:20:00,45.7,35.5,29.69,North,5,0.0,0.0,67,0.00,,,0.00,WUHU216DAVISVP2,2013-01-20 00:20:00,
2013-01-19 19:25:00,45.7,35.8,29.69,NNE,19,0.0,0.0,68,0.00,,,0.00,WUHU216DAVISVP2,2013-01-20 00:25:00,
2013-01-19 19:30:00,45.6,35.7,29.69,NE,50,0.0,0.0,68,0.00,,,0.00,WUHU216DAVISVP2,2013-01-20 00:30:00,
2013-01-19 19:35:00,45.6,35.7,29.69,NE,50,0.0,0.0,68,0.00,,,0.00,WUHU216DAVISVP2,2013-01-20 00:35:00,
2013-01-19 19:41:00,45.5,35.3,29.69,NE,38,0.0,0.0,67,0.00,,,0.00,WUHU216DAVISVP2,2013-01-20 00:41:00,
2013-01-19 19:46:00,45.2,35.7,29.68,NNE,16,0.0,0.0,69,0.00,,,0.00,WUHU216DAVISVP2,2013-01-20 00:46:00,
2013-01-19 19:51:00,45.1,35.3,29.68,NNE,19,0.0,0.0,68,0.00,,,0.00,WUHU216DAVISVP2,2013-01-20 00:51:00,
2013-01-19 19:56:00,45.0,35.2,29.67,NE,41,0.0,0.0,68,0.00,,,0.00,WUHU216DAVISVP2,2013-01-20 00:56:00,
2013-01-19 20:01:00,44.9,35.4,29.67,East,93,0.0,0.0,69,0.00,,,0.00,WUHU216DAVISVP2,2013-01-20 01:01:00,
2013-01-19 20:07:00,44.7,35.6,29.67,North,5,0.0,0.0,70,0.00,,,0.00,WUHU216DAVISVP2,2013-01-20 01:07:00,
2013-01-19 20:12:00,44.6,35.1,29.66,NE,40,0.0,0.0,69,0.00,,,0.00,WUHU216DAVISVP2,2013-01-20 01:12:00,
2013-01-19 20:17:00,44.4,35.3,29.66,NNE,15,0.0,0.0,70,0.00,,,0.00,WUHU216DAVISVP2,2013-01-20 01:17:00,
2013-01-19 20:22:00,44.4,35.3,29.65,NNE,14,0.0,0.0,70,0.00,,,0.00,WUHU216DAVISVP2,2013-01-20 01:22:00,
2013-01-19 20:27:00,44.5,35.4,29.65,NE,45,0.0,0.0,70,0.00,,,0.00,WUHU216DAVISVP2,2013-01-20 01:27:00,
2013-01-19 20:32:00,44.5,35.4,29.65,North,9,0.0,0.0,70,0.00,,,0.00,WUHU216DAVISVP2,2013-01-20 01:32:00,
2013-01-19 20:37:00,44.5,35.4,29.65,ENE,57,0.0,0.0,70,0.00,,,0.00,WUHU216DAVISVP2,2013-01-20 01:37:00,
2013-01-19 20:42:00,44.3,35.2,29.64,NE,40,0.0,0.0,70,0.00,,,0.00,WUHU216DAVISVP2,2013-01-20 01:42:00,
2013-01-19 20:48:00,44.2,35.1,29.64,NE,43,0.0,0.0,70,0.00,,,0.00,WUHU216DAVISVP2,2013-01-20 01:48:00,
2013-01-19 20:54:00,44.1,35.4,29.64,NNE,26,0.0,0.0,71,0.00,,,0.00,WUHU216DAVISVP2,2013-01-20 01:54:00,
2013-01-19 20:59:00,44.1,35.4,29.64,NNE,26,0.0,0.0,71,0.00,,,0.00,WUHU216DAVISVP2,2013-01-20 01:59:00,
2013-01-19 21:04:00,43.8,35.1,29.64,NE,46,0.0,0.0,71,0.00,,,0.00,WUHU216DAVISVP2,2013-01-20 02:04:00,
2013-01-19 21:09:00,43.6,35.2,29.64,NE,45,0.0,0.0,72,0.00,,,0.00,WUHU216DAVISVP2,2013-01-20 02:09:00,
2013-01-19 21:14:00,43.6,35.2,29.63,ENE,58,0.0,0.0,72,0.00,,,0.00,WUHU216DAVISVP2,2013-01-20 02:14:00,
2013-01-19 21:19:00,43.6,34.9,29.63,West,279,0.0,0.0,71,0.00,,,0.00,WUHU216DAVISVP2,2013-01-20 02:19:00,
2013-01-19 21:24:00,43.5,35.4,29.63,NE,45,0.0,0.0,73,0.00,,,0.00,WUHU216DAVISVP2,2013-01-20 02:24:00,
2013-01-19 21:29:00,43.6,35.2,29.63,NE,51,0.0,0.0,72,0.00,,,0.00,WUHU216DAVISVP2,2013-01-20 02:29:00,
2013-01-19 21:34:00,43.7,35.6,29.63,SSE,165,0.0,0.0,73,0.00,,,0.00,WUHU216DAVISVP2,2013-01-20 02:34:00,
2013-01-19 21:37:00,43.7,36.7,29.63,ENE,58,0.0,0.0,76,0.00,,,0.00,WUHU216DAVISVP2,2013-01-20 02:37:00,
2013-01-19 21:39:00,43.8,35.8,29.62,NNE,27,0.0,0.0,73,0.00,,,0.00,WUHU216DAVISVP2,2013-01-20 02:39:00,
2013-01-19 21:44:00,43.9,35.9,29.62,ENE,65,0.0,0.0,73,0.00,,,0.00,WUHU216DAVISVP2,2013-01-20 02:44:00,
2013-01-19 21:45:00,43.9,35.9,29.62,ENE,65,0.0,0.0,73,0.00,,,0.00,WUHU216DAVISVP2,2013-01-20 02:45:00,
2013-01-19 21:50:00,44.0,35.6,29.62,SSE,166,0.0,0.0,72,0.00,,,0.00,WUHU216DAVISVP2,2013-01-20 02:50:00,
2013-01-19 21:55:00,44.0,35.9,29.62,ENE,59,0.0,0.0,73,0.00,,,0.00,WUHU216DAVISVP2,2013-01-20 02:55:00,
2013-01-19 21:57:00,44.0,35.6,29.62,NNE,25,0.0,0.0,72,0.00,,,0.00,WUHU216DAVISVP2,2013-01-20 02:57:00,
2013-01-19 22:00:00,44.0,35.6,29.62,ESE,123,0.0,0.0,72,0.00,,,0.00,WUHU216DAVISVP2,2013-01-20 03:00:00,
2013-01-19 22:05:00,44.0,35.6,29.62,NNE,25,0.0,0.0,72,0.00,,,0.00,WUHU216DAVISVP2,2013-01-20 03:05:00,
2013-01-19 22:10:00,44.0,35.9,29.61,NE,41,0.0,0.0,73,0.00,,,0.00,WUHU216DAVISVP2,2013-01-20 03:10:00,
2013-01-19 22:15:00,44.0,35.9,29.61,NE,41,0.0,0.0,73,0.00,,,0.00,WUHU216DAVISVP2,2013-01-20 03:15:00,
2013-01-19 22:20:00,44.0,36.0,29.61,East,84,0.0,0.0,73,0.00,,,0.00,WUHU216DAVISVP2,2013-01-20 03:20:00,
2013-01-19 22:25:00,44.0,36.0,29.61,NE,39,0.0,0.0,73,0.00,,,0.00,WUHU216DAVISVP2,2013-01-20 03:25:00,
2013-01-19 22:31:00,43.9,35.9,29.61,WNW,295,0.0,0.0,73,0.00,,,0.00,WUHU216DAVISVP2,2013-01-20 03:31:00,
2013-01-19 22:32:00,43.8,35.8,29.61,SSE,167,0.0,0.0,73,0.00,,,0.00,WUHU216DAVISVP2,2013-01-20 03:32:00,
2013-01-19 22:36:00,43.8,35.8,29.61,SSE,167,0.0,0.0,73,0.00,,,0.00,WUHU216DAVISVP2,2013-01-20 03:36:00,
2013-01-19 22:41:00,43.6,35.9,29.60,NE,53,0.0,0.0,74,0.00,,,0.00,WUHU216DAVISVP2,2013-01-20 03:41:00,
2013-01-19 22:46:00,43.7,35.7,29.60,NE,42,0.0,0.0,73,0.00,,,0.00,WUHU216DAVISVP2,2013-01-20 03:46:00,
2013-01-19 22:51:00,43.5,35.8,29.60,ENE,61,0.0,0.0,74,0.00,,,0.00,WUHU216DAVISVP2,2013-01-20 03:51:00,
2013-01-19 22:56:00,43.3,35.6,29.60,NE,38,0.0,0.0,74,0.00,,,0.00,WUHU216DAVISVP2,2013-01-20 03:56:00,
2013-01-19 23:02:00,43.1,35.8,29.59,WSW,249,0.0,0.0,75,0.00,,,0.00,WUHU216DAVISVP2,2013-01-20 04:02:00,
2013-01-19 23:07:00,43.1,35.8,29.59,North,351,0.0,0.0,75,0.00,,,0.00,WUHU216DAVISVP2,2013-01-20 04:07:00,
2013-01-19 23:12:00,43.0,35.7,29.59,ESE,123,0.0,0.0,75,0.00,,,0.00,WUHU216DAVISVP2,2013-01-20 04:12:00,
2013-01-19 23:17:00,42.9,35.9,29.59,NNE,18,0.0,0.0,76,0.00,,,0.00,WUHU216DAVISVP2,2013-01-20 04:17:00,
2013-01-19 23:22:00,42.8,35.8,29.59,NE,39,0.0,0.0,76,0.00,,,0.00,WUHU216DAVISVP2,2013-01-20 04:22:00,
2013-01-19 23:28:00,42.8,35.8,29.59,NE,39,0.0,0.0,76,0.00,,,0.00,WUHU216DAVISVP2,2013-01-20 04:28:00,
2013-01-19 23:33:00,42.6,35.6,29.59,NNW,328,0.0,0.0,76,0.00,,,0.00,WUHU216DAVISVP2,2013-01-20 04:33:00,
2013-01-19 23:34:00,42.6,35.6,29.59,NNE,28,0.0,0.0,76,0.00,,,0.00,WUHU216DAVISVP2,2013-01-20 04:34:00,
2013-01-19 23:38:00,42.5,35.2,29.59,NW,304,0.0,0.0,75,0.00,,,0.00,WUHU216DAVISVP2,2013-01-20 04:38:00,
2013-01-19 23:43:00,42.6,35.6,29.59,NNE,28,0.0,0.0,76,0.00,,,0.00,WUHU216DAVISVP2,2013-01-20 04:43:00,
2013-01-19 23:45:00,42.5,35.5,29.59,NE,50,0.0,0.0,76,0.00,,,0.00,WUHU216DAVISVP2,2013-01-20 04:45:00,
2013-01-19 23:48:00,42.5,35.5,29.59,NE,50,0.0,0.0,76,0.00,,,0.00,WUHU216DAVISVP2,2013-01-20 04:48:00,
2013-01-19 23:53:00,42.6,35.3,29.59,NNE,32,0.0,0.0,75,0.00,,,0.00,WUHU216DAVISVP2,2013-01-20 04:53:00,
2013-01-19 23:58:00,42.9,35.2,29.59,NE,36,0.0,0.0,74,0.00,,,0.00,WUHU216DAVISVP2,2013-01-20 04:58:00,